| time (UTC) | temp F | wind direction | speed MPH | gust MPH | rain 1hr in | rain 24hr in | rain mn in | humidity % | barometer mb |
| 20260506044533 | 56 | 238 | 2.0 | 4.0 | 0.00 | 0.00 | 0.00 | 65 | 1014.4 |
| 20260506044024 | 57 | 242 | 1.0 | 4.0 | 0.00 | 0.00 | 0.00 | 66 | 1014.4 |
| 20260506043534 | 57 | 233 | 2.0 | 4.0 | 0.00 | 0.00 | 0.00 | 64 | 1014.5 |
| 20260506043029 | 57 | 238 | 1.0 | 4.0 | 0.00 | 0.00 | 0.00 | 62 | 1014.5 |
| 20260506042538 | 57 | 192 | 2.0 | 7.0 | 0.00 | 0.00 | 0.00 | 63 | 1014.6 |
| 20260506042028 | 57 | 267 | 2.0 | 7.0 | 0.00 | 0.00 | 0.00 | 64 | 1014.4 |
| 20260506041525 | 57 | 225 | 2.0 | 5.0 | 0.00 | 0.00 | 0.00 | 62 | 1014.5 |
| 20260506041036 | 57 | 238 | 3.0 | 6.0 | 0.00 | 0.00 | 0.00 | 63 | 1014.3 |
| 20260506040524 | 57 | 254 | 3.0 | 6.0 | 0.00 | 0.00 | 0.00 | 65 | 1014.3 |
| 20260506040024 | 58 | 237 | 3.0 | 6.0 | 0.00 | 0.00 | 0.00 | 62 | 1014.2 |
| 20260506035530 | 59 | 220 | 1.0 | 6.0 | 0.00 | 0.00 | 0.00 | 55 | 1014.0 |
| 20260506035018 | 59 | 251 | 4.0 | 7.0 | 0.00 | 0.00 | 0.00 | 53 | 1014.0 |
| 20260506034537 | 59 | 232 | 1.0 | 4.0 | 0.00 | 0.00 | 0.00 | 60 | 1014.0 |
| 20260506034024 | 59 | 248 | 2.0 | 5.0 | 0.00 | 0.00 | 0.00 | 56 | 1013.9 |
| 20260506033534 | 59 | 239 | 2.0 | 5.0 | 0.00 | 0.00 | 0.00 | 57 | 1013.9 |
| 20260506033029 | 61 | 246 | 2.0 | 4.0 | 0.00 | 0.00 | 0.00 | 53 | 1013.9 |
| 20260506032521 | 61 | 251 | 1.0 | 4.0 | 0.00 | 0.00 | 0.00 | 49 | 1013.9 |
| 20260506032028 | 61 | 264 | 2.0 | 3.0 | 0.00 | 0.00 | 0.00 | 53 | 1013.8 |
| 20260506031526 | 61 | 249 | 1.0 | 3.0 | 0.00 | 0.00 | 0.00 | 53 | 1013.7 |
| 20260506031039 | 61 | 234 | 1.0 | 3.0 | 0.00 | 0.00 | 0.00 | 52 | 1013.7 |
| 20260506030532 | 62 | 261 | 1.0 | 3.0 | 0.00 | 0.00 | 0.00 | 52 | 1013.7 |
| 20260506030036 | 62 | 250 | 1.0 | 3.0 | 0.00 | 0.00 | 0.00 | 52 | 1013.6 |
| 20260506025539 | 63 | 258 | 2.0 | 3.0 | 0.00 | 0.00 | 0.00 | 50 | 1013.7 |
| 20260506025027 | 64 | 261 | 2.0 | 3.0 | 0.00 | 0.00 | 0.00 | 51 | 1013.7 |
| 20260506024546 | 65 | 267 | 2.0 | 3.0 | 0.00 | 0.00 | 0.00 | 42 | 1013.7 |
| 20260506024033 | 66 | 254 | 1.0 | 3.0 | 0.00 | 0.00 | 0.00 | 37 | 1013.7 |
| 20260506023522 | 68 | 248 | 1.0 | 3.0 | 0.00 | 0.00 | 0.00 | 38 | 1013.7 |
| 20260506023020 | 69 | 312 | 1.0 | 3.0 | 0.00 | 0.00 | 0.00 | 29 | 1013.6 |
| 20260506022534 | 69 | 312 | 1.0 | 3.0 | 0.00 | 0.00 | 0.00 | 28 | 1013.5 |
| 20260506022021 | 69 | 309 | 2.0 | 4.0 | 0.00 | 0.00 | 0.00 | 28 | 1013.6 |
| 20260506021519 | 69 | 300 | 2.0 | 4.0 | 0.00 | 0.00 | 0.00 | 28 | 1013.5 |
| 20260506021028 | 69 | 294 | 2.0 | 4.0 | 0.00 | 0.00 | 0.00 | 29 | 1013.4 |
| 20260506020518 | 70 | 310 | 2.0 | 6.0 | 0.00 | 0.00 | 0.00 | 28 | 1013.4 |
| 20260506020034 | 70 | 9 | 3.0 | 6.0 | 0.00 | 0.00 | 0.00 | 28 | 1013.5 |
| 20260506015529 | 70 | 5 | 3.0 | 5.0 | 0.00 | 0.00 | 0.00 | 27 | 1013.5 |
| 20260506015036 | 70 | 56 | 2.0 | 5.0 | 0.00 | 0.00 | 0.00 | 28 | 1013.6 |
| 20260506014533 | 70 | 304 | 3.0 | 4.0 | 0.00 | 0.00 | 0.00 | 27 | 1013.5 |
| 20260506014020 | 70 | 312 | 2.0 | 3.0 | 0.00 | 0.00 | 0.00 | 28 | 1013.5 |
| 20260506013531 | 71 | 304 | 1.0 | 4.0 | 0.00 | 0.00 | 0.00 | 27 | 1013.5 |
| 20260506013039 | 71 | 50 | 2.0 | 6.0 | 0.00 | 0.00 | 0.00 | 26 | 1013.5 |
| 20260506012518 | 71 | 48 | 4.0 | 10.0 | 0.00 | 0.00 | 0.00 | 25 | 1013.4 |
| 20260506012028 | 71 | 38 | 5.0 | 10.0 | 0.00 | 0.00 | 0.00 | 26 | 1013.4 |
| 20260506011523 | 71 | 28 | 3.0 | 10.0 | 0.00 | 0.00 | 0.00 | 26 | 1013.4 |
| 20260506011034 | 71 | 49 | 6.0 | 11.0 | 0.00 | 0.00 | 0.00 | 25 | 1013.4 |
| 20260506010523 | 71 | 331 | 4.0 | 9.0 | 0.00 | 0.00 | 0.00 | 26 | 1013.4 |
| 20260506010024 | 72 | 355 | 3.0 | 9.0 | 0.00 | 0.00 | 0.00 | 25 | 1013.4 |
| 20260506005530 | 72 | 12 | 5.0 | 10.0 | 0.00 | 0.00 | 0.00 | 25 | 1013.4 |
| 20260506005022 | 71 | 37 | 5.0 | 10.0 | 0.00 | 0.00 | 0.00 | 25 | 1013.5 |
| 20260506004521 | 71 | 5 | 6.0 | 11.0 | 0.00 | 0.00 | 0.00 | 24 | 1013.5 |
| 20260506004029 | 72 | 25 | 5.0 | 11.0 | 0.00 | 0.00 | 0.00 | 25 | 1013.6 |
| 20260506003518 | 72 | 51 | 2.0 | 6.0 | 0.00 | 0.00 | 0.00 | 25 | 1013.7 |
| 20260506003036 | 71 | 21 | 2.0 | 12.0 | 0.00 | 0.00 | 0.00 | 25 | 1013.7 |
| 20260506002527 | 71 | 309 | 5.0 | 12.0 | 0.00 | 0.00 | 0.00 | 25 | 1013.8 |
| 20260506002037 | 72 | 28 | 5.0 | 14.0 | 0.00 | 0.00 | 0.00 | 24 | 1013.9 |
| 20260506001537 | 72 | 52 | 5.0 | 16.0 | 0.00 | 0.00 | 0.00 | 24 | 1013.9 |
| 20260506001022 | 72 | 60 | 7.0 | 16.0 | 0.00 | 0.00 | 0.00 | 25 | 1014.0 |
| 20260506000531 | 72 | 360 | 6.0 | 16.0 | 0.00 | 0.00 | 0.00 | 24 | 1014.0 |
| 20260506000025 | 72 | 11 | 5.0 | 16.0 | 0.00 | 0.00 | 0.00 | 24 | 1014.1 |
| 20260505235533 | 72 | 57 | 2.0 | 10.0 | 0.00 | 0.00 | 0.00 | 25 | 1014.1 |
| 20260505235026 | 71 | 26 | 6.0 | 12.0 | 0.00 | 0.00 | 0.00 | 25 | 1014.2 |
| 20260505234529 | 72 | 34 | 7.0 | 12.0 | 0.00 | 0.00 | 0.00 | 24 | 1014.2 |
| 20260505234030 | 72 | 65 | 5.0 | 12.0 | 0.00 | 0.00 | 0.00 | 23 | 1014.2 |
| 20260505233526 | 72 | 24 | 4.0 | 12.0 | 0.00 | 0.00 | 0.00 | 25 | 1014.2 |
| 20260505233021 | 71 | 5 | 4.0 | 12.0 | 0.00 | 0.00 | 0.00 | 24 | 1014.0 |
| 20260505232531 | 71 | 360 | 3.0 | 10.0 | 0.00 | 0.00 | 0.00 | 25 | 1014.1 |
| 20260505232020 | 71 | 82 | 4.0 | 17.0 | 0.00 | 0.00 | 0.00 | 23 | 1014.1 |
| 20260505231540 | 72 | 44 | 7.0 | 17.0 | 0.00 | 0.00 | 0.00 | 24 | 1014.3 |
| 20260505231028 | 72 | 36 | 2.0 | 15.0 | 0.00 | 0.00 | 0.00 | 25 | 1014.3 |
| 20260505230535 | 71 | 57 | 6.0 | 15.0 | 0.00 | 0.00 | 0.00 | 25 | 1014.3 |
| 20260505230048 | 71 | 88 | 8.0 | 16.0 | 0.00 | 0.00 | 0.00 | 25 | 1014.4 |
| 20260505225519 | 71 | 32 | 11.0 | 16.0 | 0.00 | 0.00 | 0.00 | 24 | 1014.4 |
| 20260505225030 | 71 | 9 | 7.0 | 15.0 | 0.00 | 0.00 | 0.00 | 25 | 1014.5 |
| 20260505224529 | 72 | 25 | 7.0 | 13.0 | 0.00 | 0.00 | 0.00 | 25 | 1014.5 |
| 20260505224040 | 72 | 355 | 8.0 | 12.0 | 0.00 | 0.00 | 0.00 | 25 | 1014.6 |
| 20260505223526 | 71 | 302 | 4.0 | 12.0 | 0.00 | 0.00 | 0.00 | 25 | 1014.6 |
| 20260505223020 | 71 | 5 | 5.0 | 14.0 | 0.00 | 0.00 | 0.00 | 24 | 1014.7 |
| 20260505222535 | 71 | 360 | 7.0 | 15.0 | 0.00 | 0.00 | 0.00 | 26 | 1014.7 |
| 20260505222024 | 71 | 348 | 6.0 | 15.0 | 0.00 | 0.00 | 0.00 | 26 | 1014.7 |
| 20260505221521 | 71 | 302 | 9.0 | 15.0 | 0.00 | 0.00 | 0.00 | 26 | 1014.6 |
| 20260505221031 | 71 | 355 | 4.0 | 18.0 | 0.00 | 0.00 | 0.00 | 27 | 1014.8 |
| 20260505220520 | 71 | 12 | 12.0 | 18.0 | 0.00 | 0.00 | 0.00 | 25 | 1014.8 |
| 20260505220041 | 71 | 343 | 8.0 | 13.0 | 0.00 | 0.00 | 0.00 | 25 | 1014.7 |
| 20260505215527 | 71 | 14 | 7.0 | 16.0 | 0.00 | 0.00 | 0.00 | 26 | 1014.7 |
| 20260505215035 | 71 | 15 | 9.0 | 16.0 | 0.00 | 0.00 | 0.00 | 26 | 1014.8 |
| 20260505214532 | 71 | 5 | 8.0 | 14.0 | 0.00 | 0.00 | 0.00 | 26 | 1014.8 |
| 20260505214021 | 71 | 326 | 8.0 | 15.0 | 0.00 | 0.00 | 0.00 | 27 | 1014.8 |
| 20260505213530 | 71 | 331 | 6.0 | 15.0 | 0.00 | 0.00 | 0.00 | 28 | 1014.8 |
| 20260505213035 | 71 | 314 | 5.0 | 12.0 | 0.00 | 0.00 | 0.00 | 28 | 1014.9 |
| 20260505212538 | 71 | 13 | 4.0 | 12.0 | 0.00 | 0.00 | 0.00 | 28 | 1015.0 |
| 20260505212030 | 71 | 5 | 4.0 | 15.0 | 0.00 | 0.00 | 0.00 | 29 | 1015.0 |
| 20260505211528 | 70 | 338 | 6.0 | 15.0 | 0.00 | 0.00 | 0.00 | 29 | 1015.1 |
| 20260505211037 | 71 | 360 | 5.0 | 12.0 | 0.00 | 0.00 | 0.00 | 30 | 1015.0 |
| 20260505210526 | 70 | 326 | 5.0 | 12.0 | 0.00 | 0.00 | 0.00 | 29 | 1015.2 |
| 20260505210023 | 71 | 330 | 3.0 | 11.0 | 0.00 | 0.00 | 0.00 | 31 | 1015.1 |
| 20260505205531 | 71 | 5 | 5.0 | 13.0 | 0.00 | 0.00 | 0.00 | 31 | 1015.2 |
| 20260505205021 | 70 | 11 | 7.0 | 13.0 | 0.00 | 0.00 | 0.00 | 30 | 1015.1 |
| 20260505204536 | 70 | 350 | 8.0 | 13.0 | 0.00 | 0.00 | 0.00 | 30 | 1015.2 |
| 20260505204030 | 70 | 318 | 6.0 | 12.0 | 0.00 | 0.00 | 0.00 | 29 | 1015.2 |
| 20260505203534 | 71 | 329 | 7.0 | 12.0 | 0.00 | 0.00 | 0.00 | 29 | 1015.3 |
| 20260505203042 | 71 | 312 | 2.0 | 12.0 | 0.00 | 0.00 | 0.00 | 31 | 1015.2 |
| 20260505202521 | 71 | 58 | 5.0 | 12.0 | 0.00 | 0.00 | 0.00 | 29 | 1015.2 |
| 20260505202030 | 71 | 57 | 2.0 | 10.0 | 0.00 | 0.00 | 0.00 | 31 | 1015.2 |
| 20260505201528 | 70 | 308 | 6.0 | 10.0 | 0.00 | 0.00 | 0.00 | 31 | 1015.2 |
| 20260505201020 | 70 | 184 | 1.0 | 4.0 | 0.00 | 0.00 | 0.00 | 34 | 1015.2 |
| 20260505200531 | 69 | 111 | 1.0 | 6.0 | 0.00 | 0.00 | 0.00 | 35 | 1015.3 |
| 20260505200032 | 69 | 210 | 2.0 | 6.0 | 0.00 | 0.00 | 0.00 | 32 | 1015.3 |
| 20260505195538 | 69 | 191 | 0.0 | 8.0 | 0.00 | 0.00 | 0.00 | 32 | 1015.3 |
| 20260505195026 | 68 | 219 | 5.0 | 8.0 | 0.00 | 0.00 | 0.00 | 32 | 1015.3 |
| 20260505194524 | 69 | 203 | 2.0 | 4.0 | 0.00 | 0.00 | 0.00 | 34 | 1015.3 |
| 20260505194034 | 69 | 209 | 2.0 | 5.0 | 0.00 | 0.00 | 0.00 | 30 | 1015.4 |
| 20260505193524 | 68 | 208 | 2.0 | 5.0 | 0.00 | 0.00 | 0.00 | 33 | 1015.4 |
| 20260505193018 | 68 | 182 | 3.0 | 6.0 | 0.00 | 0.00 | 0.00 | 32 | 1015.3 |
| 20260505192534 | 68 | 203 | 2.0 | 6.0 | 0.00 | 0.00 | 0.00 | 31 | 1015.5 |
| 20260505192037 | 67 | 174 | 3.0 | 7.0 | 0.00 | 0.00 | 0.00 | 35 | 1015.4 |
| 20260505191533 | 67 | 225 | 5.0 | 7.0 | 0.00 | 0.00 | 0.00 | 34 | 1015.5 |
| 20260505191026 | 67 | 175 | 3.0 | 5.0 | 0.00 | 0.00 | 0.00 | 35 | 1015.6 |
| 20260505190522 | 67 | 216 | 2.0 | 5.0 | 0.00 | 0.00 | 0.00 | 32 | 1015.7 |
| 20260505190031 | 67 | 209 | 3.0 | 6.0 | 0.00 | 0.00 | 0.00 | 35 | 1015.7 |
| 20260505185524 | 66 | 185 | 4.0 | 6.0 | 0.00 | 0.00 | 0.00 | 35 | 1015.7 |
| 20260505185031 | 66 | 213 | 4.0 | 6.0 | 0.00 | 0.00 | 0.00 | 33 | 1015.8 |
| 20260505184526 | 66 | 217 | 3.0 | 5.0 | 0.00 | 0.00 | 0.00 | 35 | 1015.8 |
| 20260505184039 | 67 | 195 | 3.0 | 4.0 | 0.00 | 0.00 | 0.00 | 34 | 1015.8 |
| 20260505183524 | 67 | 290 | 1.0 | 3.0 | 0.00 | 0.00 | 0.00 | 34 | 1015.7 |
| 20260505183021 | 66 | 336 | 1.0 | 5.0 | 0.00 | 0.00 | 0.00 | 37 | 1015.7 |
| 20260505182530 | 65 | 173 | 3.0 | 5.0 | 0.00 | 0.00 | 0.00 | 36 | 1015.8 |
| 20260505182019 | 65 | 235 | 2.0 | 4.0 | 0.00 | 0.00 | 0.00 | 38 | 1015.9 |
| 20260505181536 | 65 | 224 | 2.0 | 4.0 | 0.00 | 0.00 | 0.00 | 38 | 1015.8 |
| 20260505181024 | 64 | 200 | 0.0 | 4.0 | 0.00 | 0.00 | 0.00 | 47 | 1015.9 |
| 20260505180535 | 65 | 215 | 2.0 | 4.0 | 0.00 | 0.00 | 0.00 | 36 | 1016.0 |
| 20260505180030 | 64 | 219 | 2.0 | 4.0 | 0.00 | 0.00 | 0.00 | 42 | 1016.0 |
| 20260505175519 | 64 | 209 | 2.0 | 3.0 | 0.00 | 0.00 | 0.00 | 38 | 1016.1 |
| 20260505175034 | 64 | 210 | 1.0 | 5.0 | 0.00 | 0.00 | 0.00 | 44 | 1016.1 |
| 20260505174529 | 63 | 167 | 3.0 | 5.0 | 0.00 | 0.00 | 0.00 | 43 | 1016.2 |
| 20260505174020 | 63 | 202 | 2.0 | 5.0 | 0.00 | 0.00 | 0.00 | 39 | 1016.1 |
| 20260505173529 | 63 | 209 | 3.0 | 5.0 | 0.00 | 0.00 | 0.00 | 40 | 1016.1 |
| 20260505173039 | 63 | 211 | 2.0 | 5.0 | 0.00 | 0.00 | 0.00 | 41 | 1016.1 |
| 20260505172537 | 63 | 202 | 3.0 | 5.0 | 0.00 | 0.00 | 0.00 | 41 | 1016.1 |
| 20260505172025 | 63 | 202 | 2.0 | 4.0 | 0.00 | 0.00 | 0.00 | 44 | 1016.1 |
| 20260505171523 | 62 | 187 | 3.0 | 5.0 | 0.00 | 0.00 | 0.00 | 43 | 1016.2 |
| 20260505171034 | 62 | 216 | 4.0 | 5.0 | 0.00 | 0.00 | 0.00 | 43 | 1016.2 |
| 20260505170522 | 63 | 188 | 3.0 | 5.0 | 0.00 | 0.00 | 0.00 | 45 | 1016.3 |
| 20260505170023 | 63 | 179 | 2.0 | 4.0 | 0.00 | 0.00 | 0.00 | 39 | 1016.3 |
| 20260505165529 | 62 | 215 | 2.0 | 4.0 | 0.00 | 0.00 | 0.00 | 40 | 1016.2 |
| 20260505165018 | 63 | 150 | 1.0 | 6.0 | 0.00 | 0.00 | 0.00 | 39 | 1016.2 |
| 20260505164547 | 62 | 248 | 1.0 | 6.0 | 0.00 | 0.00 | 0.00 | 43 | 1016.3 |
| 20260505164028 | 61 | 214 | 2.0 | 4.0 | 0.00 | 0.00 | 0.00 | 44 | 1016.3 |
| 20260505163536 | 60 | 198 | 2.0 | 4.0 | 0.00 | 0.00 | 0.00 | 48 | 1016.4 |
| 20260505163034 | 60 | 184 | 3.0 | 5.0 | 0.00 | 0.00 | 0.00 | 49 | 1016.3 |
| 20260505162523 | 60 | 214 | 3.0 | 5.0 | 0.00 | 0.00 | 0.00 | 47 | 1016.3 |
| 20260505162032 | 60 | 221 | 3.0 | 4.0 | 0.00 | 0.00 | 0.00 | 46 | 1016.4 |
| 20260505161528 | 61 | 223 | 1.0 | 3.0 | 0.00 | 0.00 | 0.00 | 46 | 1016.4 |
| 20260505161035 | 60 | 233 | 1.0 | 3.0 | 0.00 | 0.00 | 0.00 | 46 | 1016.4 |
| 20260505160525 | 59 | 239 | 1.0 | 3.0 | 0.00 | 0.00 | 0.00 | 51 | 1016.4 |
| 20260505153047 | 56 | 208 | 1.0 | 2.0 | 0.00 | 0.00 | 0.00 | 64 | 1016.4 |
| 20260505152525 | 56 | 166 | 1.0 | 3.0 | 0.00 | 0.00 | 0.00 | 64 | 1016.4 |
| 20260505152016 | 57 | 227 | 1.0 | 3.0 | 0.00 | 0.00 | 0.00 | 57 | 1016.4 |
| 20260505151542 | 57 | 82 | 1.0 | 3.0 | 0.00 | 0.00 | 0.00 | 61 | 1016.3 |
| 20260505151026 | 56 | 342 | 0.0 | 0.0 | 0.00 | 0.00 | 0.00 | 66 | 1016.3 |
| 20260505150535 | 54 | 181 | 0.0 | 0.0 | 0.00 | 0.00 | 0.00 | 71 | 1016.2 |
| 20260505140520 | 50 | 259 | 0.0 | 3.0 | 0.00 | 0.00 | 0.00 | 76 | 1016.1 |
| 20260505125019 | 47 | 263 | 2.0 | 4.0 | 0.00 | 0.00 | 0.00 | 85 | 1015.2 |
| 20260505124538 | 47 | 257 | 2.0 | 4.0 | 0.00 | 0.00 | 0.00 | 85 | 1015.0 |
| 20260505124024 | 47 | 256 | 1.0 | 3.0 | 0.00 | 0.00 | 0.00 | 84 | 1015.0 |
| 20260505123536 | 47 | 246 | 1.0 | 4.0 | 0.00 | 0.00 | 0.00 | 84 | 1015.0 |
| 20260505123031 | 47 | 236 | 2.0 | 4.0 | 0.00 | 0.00 | 0.00 | 84 | 1014.9 |
| 20260505122519 | 47 | 264 | 2.0 | 3.0 | 0.00 | 0.00 | 0.00 | 84 | 1014.8 |
| 20260505122029 | 47 | 271 | 1.0 | 2.0 | 0.00 | 0.00 | 0.00 | 84 | 1014.8 |
| 20260505121524 | 47 | 254 | 0.0 | 0.0 | 0.00 | 0.00 | 0.00 | 84 | 1014.8 |
| 20260505121031 | 47 | 234 | 0.0 | 0.0 | 0.00 | 0.00 | 0.00 | 85 | 1014.8 |
| 20260505120527 | 47 | 232 | 0.0 | 2.0 | 0.00 | 0.00 | 0.00 | 84 | 1014.6 |
| 20260505120023 | 47 | 261 | 0.0 | 3.0 | 0.00 | 0.00 | 0.00 | 83 | 1014.7 |
| 20260505115530 | 48 | 263 | 2.0 | 3.0 | 0.00 | 0.00 | 0.00 | 82 | 1014.6 |
| 20260505115020 | 48 | 258 | 0.0 | 0.0 | 0.00 | 0.00 | 0.00 | 82 | 1014.6 |
| 20260505114531 | 48 | 258 | 0.0 | 0.0 | 0.00 | 0.00 | 0.00 | 83 | 1014.4 |
| 20260505114029 | 48 | 258 | 0.0 | 2.0 | 0.00 | 0.00 | 0.00 | 83 | 1014.4 |
| 20260505113536 | 48 | 258 | 0.0 | 4.0 | 0.00 | 0.00 | 0.00 | 83 | 1014.4 |
| 20260505113034 | 48 | 259 | 3.0 | 4.0 | 0.00 | 0.00 | 0.00 | 83 | 1014.4 |
| 20260505112522 | 48 | 265 | 2.0 | 4.0 | 0.00 | 0.00 | 0.00 | 83 | 1014.5 |
| 20260505112031 | 49 | 265 | 0.0 | 0.0 | 0.00 | 0.00 | 0.00 | 81 | 1014.4 |
| 20260505111534 | 49 | 266 | 0.0 | 0.0 | 0.00 | 0.00 | 0.00 | 81 | 1014.5 |
| 20260505111015 | 49 | 269 | 0.0 | 0.0 | 0.00 | 0.00 | 0.00 | 81 | 1014.3 |
| 20260505110529 | 49 | 273 | 0.0 | 0.0 | 0.00 | 0.00 | 0.00 | 82 | 1014.4 |
| 20260505102034 | 50 | 288 | 2.0 | 4.0 | 0.00 | 0.00 | 0.00 | 77 | 1014.2 |
| 20260505101531 | 50 | 258 | 0.0 | 1.0 | 0.00 | 0.00 | 0.00 | 76 | 1014.1 |
| 20260505101021 | 50 | 269 | 0.0 | 3.0 | 0.00 | 0.00 | 0.00 | 78 | 1014.2 |
| 20260505100531 | 50 | 251 | 2.0 | 4.0 | 0.00 | 0.00 | 0.00 | 79 | 1014.1 |
| 20260505100034 | 50 | 271 | 1.0 | 3.0 | 0.00 | 0.00 | 0.00 | 79 | 1013.9 |
| 20260505095537 | 50 | 252 | 1.0 | 3.0 | 0.00 | 0.00 | 0.00 | 79 | 1013.8 |
| 20260505095022 | 50 | 247 | 0.0 | 3.0 | 0.00 | 0.00 | 0.00 | 80 | 1013.7 |
| 20260505094518 | 50 | 269 | 2.0 | 3.0 | 0.00 | 0.00 | 0.00 | 80 | 1013.7 |
| 20260505094032 | 50 | 269 | 0.0 | 3.0 | 0.00 | 0.00 | 0.00 | 79 | 1013.6 |
| 20260505093521 | 50 | 254 | 1.0 | 3.0 | 0.00 | 0.00 | 0.00 | 80 | 1013.5 |
| 20260505093018 | 50 | 263 | 0.0 | 4.0 | 0.00 | 0.00 | 0.00 | 81 | 1013.5 |
| 20260505092530 | 50 | 265 | 2.0 | 4.0 | 0.00 | 0.00 | 0.00 | 80 | 1013.5 |
| 20260505092017 | 50 | 272 | 3.0 | 4.0 | 0.00 | 0.00 | 0.00 | 81 | 1013.4 |
| 20260505091550 | 51 | 265 | 2.0 | 4.0 | 0.00 | 0.00 | 0.00 | 82 | 1013.4 |
| 20260505091025 | 50 | 244 | 1.0 | 4.0 | 0.00 | 0.00 | 0.00 | 79 | 1013.3 |
| 20260505090533 | 50 | 272 | 2.0 | 4.0 | 0.00 | 0.00 | 0.00 | 79 | 1013.4 |
| 20260505090048 | 50 | 267 | 2.0 | 4.0 | 0.00 | 0.00 | 0.00 | 79 | 1013.3 |
| 20260505085520 | 51 | 266 | 2.0 | 4.0 | 0.00 | 0.00 | 0.00 | 79 | 1013.2 |
| 20260505085028 | 51 | 246 | 0.0 | 0.0 | 0.00 | 0.00 | 0.00 | 79 | 1013.2 |
| 20260505084533 | 51 | 266 | 0.0 | 0.0 | 0.00 | 0.00 | 0.00 | 79 | 1013.2 |
| 20260505084034 | 51 | 284 | 0.0 | 4.0 | 0.00 | 0.00 | 0.00 | 79 | 1013.2 |
| 20260505083528 | 51 | 284 | 1.0 | 4.0 | 0.00 | 0.00 | 0.00 | 79 | 1013.1 |
| 20260505083035 | 51 | 240 | 0.0 | 3.0 | 0.00 | 0.00 | 0.00 | 78 | 1013.2 |
| 20260505082532 | 51 | 250 | 1.0 | 3.0 | 0.00 | 0.00 | 0.00 | 77 | 1013.1 |
| 20260505082025 | 52 | 275 | 1.0 | 3.0 | 0.00 | 0.00 | 0.00 | 78 | 1013.0 |
| 20260505081525 | 52 | 258 | 0.0 | 0.0 | 0.00 | 0.00 | 0.00 | 77 | 1013.1 |
| 20260505081029 | 53 | 259 | 0.0 | 0.0 | 0.00 | 0.00 | 0.00 | 74 | 1013.0 |
| 20260505080541 | 53 | 238 | 0.0 | 1.0 | 0.00 | 0.00 | 0.00 | 74 | 1013.0 |
| 20260505080040 | 53 | 302 | 0.0 | 4.0 | 0.00 | 0.00 | 0.00 | 71 | 1013.0 |
| 20260505075524 | 53 | 300 | 2.0 | 4.0 | 0.00 | 0.00 | 0.00 | 71 | 1013.0 |
| 20260505075032 | 53 | 267 | 3.0 | 4.0 | 0.00 | 0.00 | 0.00 | 73 | 1013.0 |
| 20260505074528 | 53 | 255 | 1.0 | 4.0 | 0.00 | 0.00 | 0.00 | 76 | 1012.9 |
| 20260505074034 | 53 | 263 | 2.0 | 4.0 | 0.00 | 0.00 | 0.00 | 73 | 1012.9 |
| 20260505073527 | 53 | 246 | 3.0 | 4.0 | 0.00 | 0.00 | 0.00 | 75 | 1012.9 |
| 20260505073022 | 53 | 261 | 1.0 | 4.0 | 0.00 | 0.00 | 0.00 | 76 | 1012.9 |
| 20260505072530 | 53 | 263 | 0.0 | 3.0 | 0.00 | 0.00 | 0.00 | 77 | 1012.8 |
| 20260505072023 | 53 | 250 | 1.0 | 4.0 | 0.00 | 0.00 | 0.00 | 76 | 1012.7 |
| 20260505071526 | 53 | 252 | 2.0 | 4.0 | 0.00 | 0.00 | 0.00 | 74 | 1012.6 |
| 20260505071028 | 53 | 242 | 2.0 | 6.0 | 0.00 | 0.00 | 0.00 | 73 | 1012.6 |
| 20260505070538 | 53 | 238 | 2.0 | 6.0 | 0.00 | 0.00 | 0.00 | 75 | 1012.4 |
| 20260505070034 | 53 | 239 | 3.0 | 5.0 | 0.00 | 0.00 | 0.00 | 75 | 1012.4 |
| 20260505065520 | 53 | 241 | 2.0 | 5.0 | 0.00 | 0.00 | 0.00 | 74 | 1012.2 |
| 20260505065031 | 53 | 260 | 2.0 | 7.0 | 0.00 | 0.00 | 0.00 | 73 | 1012.1 |
| 20260505064634 | 54 | 246 | 3.0 | 7.0 | 0.00 | 0.00 | 0.00 | 74 | 1012.1 |
| 20260505064034 | 54 | 244 | 3.0 | 6.0 | 0.00 | 0.00 | 0.00 | 76 | 1012.1 |
| 20260505063522 | 54 | 248 | 3.0 | 7.0 | 0.00 | 0.00 | 0.00 | 75 | 1012.1 |
| 20260505063023 | 55 | 248 | 4.0 | 7.0 | 0.00 | 0.00 | 0.00 | 72 | 1012.0 |
| 20260505062527 | 55 | 258 | 3.0 | 5.0 | 0.00 | 0.00 | 0.00 | 70 | 1012.1 |
| 20260505062037 | 55 | 258 | 3.0 | 5.0 | 0.00 | 0.00 | 0.00 | 69 | 1012.1 |
| 20260505061542 | 55 | 230 | 3.0 | 5.0 | 0.00 | 0.00 | 0.00 | 71 | 1012.0 |
| 20260505061023 | 55 | 242 | 3.0 | 4.0 | 0.00 | 0.00 | 0.00 | 71 | 1012.1 |
| 20260505060539 | 55 | 250 | 2.0 | 4.0 | 0.00 | 0.00 | 0.00 | 70 | 1012.1 |
| 20260505060031 | 55 | 247 | 0.0 | 5.0 | 0.00 | 0.00 | 0.00 | 70 | 1012.1 |
| 20260505055521 | 56 | 266 | 3.0 | 7.0 | 0.00 | 0.00 | 0.00 | 68 | 1012.1 |
| 20260505055031 | 56 | 242 | 3.0 | 5.0 | 0.00 | 0.00 | 0.00 | 68 | 1012.0 |
| 20260505054530 | 56 | 252 | 2.0 | 6.0 | 0.00 | 0.00 | 0.00 | 69 | 1012.0 |
| 20260505054037 | 57 | 268 | 3.0 | 4.0 | 0.00 | 0.00 | 0.00 | 68 | 1011.9 |
| 20260505053523 | 57 | 258 | 2.0 | 4.0 | 0.00 | 0.00 | 0.00 | 65 | 1011.9 |
| 20260505053020 | 58 | 229 | 2.0 | 6.0 | 0.00 | 0.00 | 0.00 | 64 | 1011.9 |
| 20260505052529 | 58 | 250 | 2.0 | 6.0 | 0.00 | 0.00 | 0.00 | 66 | 1011.6 |
| 20260505052017 | 59 | 247 | 1.0 | 4.0 | 0.00 | 0.00 | 0.00 | 65 | 1011.5 |
| 20260505051536 | 60 | 250 | 2.0 | 4.0 | 0.00 | 0.00 | 0.00 | 60 | 1011.5 |
| 20260505051027 | 59 | 239 | 1.0 | 4.0 | 0.00 | 0.00 | 0.00 | 61 | 1011.5 |
| 20260505050533 | 58 | 236 | 2.0 | 4.0 | 0.00 | 0.00 | 0.00 | 63 | 1011.6 |